SWA2190 KDEN-KFAT

Flight info

Callsign SWA2190
Flight time 1h 49m
Altitude 38000
Route ZIMMR4 CHNGY LBATO HELPR GAROT KU51K OAL FRA
Aircraft B738/M-SADE2E3GIJ4RWZ/LB1D1

Departure

Time 2026-05-06 16:28
Airport Denver International Airport (KDEN)

Arrival

Time 2026-05-06 18:18
Airport Fresno Yosemite International Airport (KFAT)
Time Latitude Longitude Altitude Speed Heading
2026-05-06 15:54 39.86251 -104.67154 5375 ft 0 kts 359°
2026-05-06 16:18 39.86244 -104.67154 5375 ft 2 kts 359°
2026-05-06 16:19 39.86229 -104.67153 5375 ft 2 kts 359°
2026-05-06 16:19 39.86214 -104.67153 5375 ft 2 kts 359°
2026-05-06 16:19 39.86199 -104.67153 5375 ft 2 kts 359°
2026-05-06 16:19 39.86184 -104.67152 5375 ft 2 kts 359°
2026-05-06 16:20 39.86177 -104.67152 5375 ft 0 kts 359°
2026-05-06 16:22 39.86183 -104.67154 5375 ft 2 kts 338°
2026-05-06 16:22 39.86179 -104.67188 5375 ft 6 kts 244°
2026-05-06 16:22 39.86139 -104.67245 5376 ft 9 kts 219°
2026-05-06 16:23 39.86084 -104.67306 5378 ft 11 kts 231°
2026-05-06 16:23 39.86065 -104.67442 5379 ft 18 kts 270°
2026-05-06 16:23 39.86067 -104.67611 5379 ft 19 kts 270°
2026-05-06 16:23 39.86069 -104.67806 5379 ft 23 kts 271°
2026-05-06 16:24 39.86070 -104.68018 5379 ft 22 kts 270°
2026-05-06 16:24 39.86049 -104.68174 5379 ft 13 kts 235°
2026-05-06 16:24 39.86030 -104.68318 5375 ft 20 kts 265°
2026-05-06 16:24 39.85930 -104.68398 5375 ft 20 kts 179°
2026-05-06 16:25 39.85767 -104.68398 5378 ft 25 kts 180°
2026-05-06 16:25 39.85581 -104.68401 5378 ft 26 kts 180°
2026-05-06 16:25 39.85408 -104.68403 5381 ft 23 kts 180°
2026-05-06 16:25 39.85238 -104.68407 5381 ft 22 kts 188°
2026-05-06 16:26 39.85204 -104.68567 5376 ft 21 kts 271°
2026-05-06 16:26 39.85203 -104.68772 5366 ft 24 kts 269°
2026-05-06 16:26 39.85198 -104.69016 5355 ft 29 kts 266°
2026-05-06 16:26 39.85198 -104.69277 5343 ft 25 kts 270°
2026-05-06 16:27 39.85201 -104.69481 5335 ft 18 kts 270°
2026-05-06 16:27 39.85211 -104.69635 5335 ft 16 kts 307°
2026-05-06 16:27 39.85379 -104.69659 5334 ft 46 kts
2026-05-06 16:27 39.85891 -104.69650 5329 ft 98 kts
2026-05-06 16:28 39.86723 -104.69643 5329 ft 140 kts
2026-05-06 16:28 39.87822 -104.69634 5434 ft 164 kts
2026-05-06 16:28 39.88912 -104.69643 5923 ft 161 kts 358°
2026-05-06 16:28 39.90091 -104.69692 6180 ft 174 kts 358°
2026-05-06 16:29 39.91299 -104.69719 6551 ft 179 kts 355°
2026-05-06 16:29 39.92480 -104.70391 6671 ft 199 kts 313°
2026-05-06 16:29 39.93043 -104.72089 6920 ft 216 kts 278°
2026-05-06 16:29 39.93129 -104.74123 7131 ft 233 kts 273°
2026-05-06 16:30 39.93161 -104.76251 7568 ft 241 kts 272°
2026-05-06 16:30 39.93170 -104.77709 7937 ft 244 kts 271°
2026-05-06 16:30 39.93202 -104.80688 8674 ft 251 kts 269°
2026-05-06 16:30 39.93113 -104.83012 9055 ft 263 kts 267°
2026-05-06 16:31 39.93029 -104.85448 9432 ft 278 kts 272°
2026-05-06 16:31 39.93129 -104.88009 9860 ft 288 kts 275°
2026-05-06 16:31 39.93298 -104.90620 10417 ft 295 kts 275°
2026-05-06 16:31 39.93430 -104.93295 11093 ft 297 kts 273°
2026-05-06 16:32 39.93488 -104.95949 11943 ft 293 kts 271°
2026-05-06 16:32 39.93508 -104.98565 12766 ft 289 kts 271°
2026-05-06 16:32 39.93529 -105.01168 13462 ft 291 kts 271°
2026-05-06 16:32 39.93567 -105.03820 14196 ft 293 kts 272°
2026-05-06 16:33 39.93616 -105.06420 14966 ft 292 kts 272°
2026-05-06 16:33 39.93673 -105.09082 15697 ft 292 kts 272°
2026-05-06 16:33 39.93731 -105.11684 16399 ft 293 kts 272°
2026-05-06 16:34 39.93845 -105.16985 17768 ft 295 kts 272°
2026-05-06 16:34 39.93901 -105.19617 18417 ft 296 kts 272°
2026-05-06 16:34 39.93961 -105.22296 19016 ft 298 kts 273°
2026-05-06 16:34 39.94100 -105.24997 19577 ft 302 kts 275°
2026-05-06 16:35 39.94319 -105.27721 20143 ft 305 kts 276°
2026-05-06 16:35 39.94561 -105.30476 20703 ft 308 kts 276°
2026-05-06 16:35 39.94797 -105.33256 21262 ft 310 kts 276°
2026-05-06 16:35 39.95024 -105.36062 21780 ft 314 kts 275°
2026-05-06 16:36 39.95246 -105.38878 22255 ft 317 kts 275°
2026-05-06 16:36 39.95471 -105.41761 22545 ft 325 kts 275°
2026-05-06 16:36 39.95705 -105.44754 22703 ft 338 kts 275°
2026-05-06 16:36 39.95945 -105.47852 22847 ft 350 kts 275°
2026-05-06 16:37 39.96195 -105.51045 23082 ft 359 kts 275°
2026-05-06 16:37 39.96451 -105.54300 23445 ft 365 kts 275°
2026-05-06 16:37 39.96709 -105.57587 23980 ft 365 kts 275°
2026-05-06 16:37 39.96962 -105.60839 24409 ft 368 kts 276°
2026-05-06 16:38 39.97221 -105.64199 24804 ft 372 kts 276°
2026-05-06 16:38 39.97466 -105.67554 25155 ft 376 kts 275°
2026-05-06 16:38 39.97671 -105.70992 25377 ft 384 kts 274°
2026-05-06 16:38 39.97848 -105.74487 25663 ft 390 kts 274°
2026-05-06 16:39 39.98014 -105.78027 26051 ft 393 kts 274°
2026-05-06 16:39 39.98177 -105.81577 26452 ft 396 kts 274°
2026-05-06 16:39 39.98344 -105.85178 26816 ft 399 kts 275°
2026-05-06 16:39 39.98513 -105.88783 27151 ft 403 kts 275°
2026-05-06 16:40 39.98685 -105.92400 27515 ft 405 kts 275°
2026-05-06 16:40 39.98862 -105.96085 27860 ft 408 kts 275°
2026-05-06 16:40 39.99040 -105.99812 28101 ft 414 kts 276°
2026-05-06 16:40 39.99218 -106.03548 28453 ft 416 kts 276°
2026-05-06 16:41 39.99397 -106.07312 28815 ft 417 kts 277°
2026-05-06 16:41 39.99575 -106.11083 29187 ft 419 kts 277°
2026-05-06 16:41 39.99754 -106.14870 29441 ft 423 kts 277°
2026-05-06 16:41 39.99934 -106.18687 29721 ft 426 kts 278°
2026-05-06 16:42 40.00115 -106.22543 30015 ft 428 kts 277°
2026-05-06 16:42 40.00293 -106.26402 30301 ft 431 kts 278°
2026-05-06 16:42 40.00475 -106.30326 30490 ft 435 kts 278°
2026-05-06 16:42 40.00657 -106.34260 30761 ft 437 kts 278°
2026-05-06 16:43 40.00835 -106.38206 31064 ft 438 kts 278°
2026-05-06 16:43 40.01012 -106.42149 31387 ft 438 kts 278°
2026-05-06 16:43 40.01176 -106.46069 31767 ft 437 kts 277°
2026-05-06 16:43 40.01193 -106.50055 32162 ft 437 kts 274°
2026-05-06 16:44 40.01058 -106.53991 32529 ft 436 kts 272°
2026-05-06 16:44 40.00854 -106.57929 32818 ft 436 kts 271°
2026-05-06 16:44 40.00631 -106.61811 33107 ft 435 kts 271°
2026-05-06 16:44 40.00402 -106.65788 33254 ft 438 kts 271°
2026-05-06 16:45 40.00180 -106.69773 33370 ft 442 kts 271°
2026-05-06 16:45 39.99965 -106.73798 33542 ft 444 kts 271°
2026-05-06 16:45 39.99752 -106.77837 33957 ft 441 kts 271°
2026-05-06 16:45 39.99544 -106.81831 34287 ft 440 kts 271°
2026-05-06 16:46 39.99342 -106.85795 34587 ft 439 kts 271°
2026-05-06 16:46 39.99144 -106.89723 34915 ft 437 kts 271°
2026-05-06 16:46 39.98944 -106.93642 35280 ft 434 kts 271°
2026-05-06 16:46 39.98743 -106.97566 35619 ft 432 kts 271°
2026-05-06 16:47 39.98546 -107.01425 35984 ft 428 kts 271°
2026-05-06 16:47 39.98345 -107.05340 36302 ft 426 kts 271°
2026-05-06 16:47 39.98146 -107.09202 36461 ft 428 kts 271°
2026-05-06 16:48 39.97740 -107.17054 36729 ft 433 kts 271°
2026-05-06 16:48 39.97538 -107.20940 36937 ft 433 kts 271°
2026-05-06 16:48 39.97333 -107.24834 37218 ft 431 kts 270°
2026-05-06 16:48 39.97125 -107.28757 37415 ft 429 kts 271°
2026-05-06 16:49 39.96917 -107.32622 37843 ft 424 kts 270°
2026-05-06 16:49 39.96711 -107.36396 38019 ft 423 kts 270°
2026-05-06 16:49 39.96505 -107.40211 38049 ft 426 kts 271°
2026-05-06 16:50 39.96085 -107.47883 38069 ft 424 kts 271°
2026-05-06 16:50 39.95654 -107.55529 38076 ft 424 kts 271°
2026-05-06 16:51 39.95227 -107.63194 38107 ft 424 kts 271°
2026-05-06 16:51 39.94792 -107.70905 38115 ft 426 kts 270°
2026-05-06 16:52 39.94352 -107.78543 38118 ft 425 kts 270°
2026-05-06 16:52 39.93907 -107.86249 38133 ft 427 kts 271°
2026-05-06 16:53 39.93459 -107.93941 38129 ft 428 kts 270°
2026-05-06 16:53 39.93002 -108.01697 38114 ft 429 kts 270°
2026-05-06 16:54 39.92537 -108.09436 38110 ft 429 kts 271°
2026-05-06 16:54 39.92067 -108.17178 38111 ft 428 kts 271°
2026-05-06 16:55 39.91592 -108.24863 38111 ft 429 kts 271°
2026-05-06 16:55 39.91106 -108.32661 38100 ft 432 kts 271°
2026-05-06 16:56 39.90624 -108.40397 38103 ft 432 kts 271°
2026-05-06 16:56 39.90132 -108.48147 38084 ft 429 kts 271°
2026-05-06 16:57 39.89635 -108.55959 38083 ft 436 kts 271°
2026-05-06 16:57 39.89126 -108.63776 38092 ft 434 kts 271°
2026-05-06 16:58 39.88612 -108.71578 38094 ft 433 kts 271°
2026-05-06 16:58 39.88096 -108.79407 38088 ft 435 kts 271°
2026-05-06 16:59 39.87575 -108.87212 38096 ft 434 kts 271°
2026-05-06 16:59 39.87045 -108.95081 38092 ft 437 kts 271°
2026-05-06 17:00 39.86512 -109.02892 38111 ft 436 kts 271°
2026-05-06 17:00 39.85968 -109.10742 38117 ft 437 kts 271°
2026-05-06 17:01 39.85424 -109.18577 38102 ft 437 kts 272°
2026-05-06 17:01 39.84869 -109.26512 38101 ft 441 kts 272°
2026-05-06 17:02 39.84304 -109.34490 38098 ft 444 kts 272°
2026-05-06 17:02 39.83733 -109.42419 38113 ft 441 kts 272°
2026-05-06 17:03 39.83158 -109.50370 38113 ft 442 kts 272°
2026-05-06 17:03 39.82581 -109.58315 38120 ft 442 kts 272°
2026-05-06 17:04 39.81999 -109.66213 38127 ft 444 kts 272°
2026-05-06 17:04 39.81405 -109.74255 38125 ft 446 kts 272°
2026-05-06 17:05 39.80803 -109.82238 38127 ft 443 kts 273°
2026-05-06 17:05 39.80200 -109.90211 38128 ft 446 kts 273°
2026-05-06 17:06 39.79590 -109.98247 38120 ft 447 kts 273°
2026-05-06 17:06 39.78968 -110.06258 38115 ft 447 kts 273°
2026-05-06 17:07 39.78359 -110.14195 38113 ft 443 kts 274°
2026-05-06 17:07 39.77772 -110.22180 38122 ft 447 kts 274°
2026-05-06 17:08 39.77179 -110.30239 38119 ft 449 kts 274°
2026-05-06 17:08 39.76578 -110.38284 38105 ft 449 kts 274°
2026-05-06 17:09 39.75962 -110.46386 38091 ft 449 kts 274°
2026-05-06 17:09 39.75338 -110.54391 38094 ft 448 kts 273°
2026-05-06 17:10 39.74328 -110.62486 38103 ft 459 kts 268°
2026-05-06 17:10 39.73013 -110.70547 38111 ft 460 kts 266°
2026-05-06 17:11 39.71656 -110.78683 38117 ft 459 kts 267°
2026-05-06 17:11 39.70334 -110.86763 38117 ft 460 kts 268°
2026-05-06 17:12 39.69031 -110.94870 38106 ft 461 kts 268°
2026-05-06 17:12 39.67737 -111.02955 38096 ft 461 kts 268°
2026-05-06 17:13 39.66435 -111.11103 38098 ft 463 kts 268°
2026-05-06 17:13 39.65123 -111.19251 38089 ft 461 kts 267°
2026-05-06 17:14 39.63810 -111.27383 38094 ft 460 kts 268°
2026-05-06 17:14 39.62494 -111.35513 38185 ft 466 kts 267°
2026-05-06 17:15 39.61159 -111.43685 38129 ft 461 kts 267°
2026-05-06 17:15 39.59834 -111.51780 38142 ft 464 kts 267°
2026-05-06 17:16 39.58491 -111.59960 38134 ft 463 kts 267°
2026-05-06 17:16 39.57146 -111.68078 38130 ft 463 kts 266°
2026-05-06 17:17 39.55786 -111.76288 38126 ft 467 kts 266°
2026-05-06 17:17 39.54420 -111.84447 38135 ft 461 kts 266°
2026-05-06 17:18 39.53059 -111.92570 38145 ft 464 kts 266°
2026-05-06 17:18 39.51696 -112.00666 38158 ft 463 kts 267°
2026-05-06 17:19 39.50325 -112.08780 38162 ft 464 kts 266°
2026-05-06 17:19 39.48933 -112.16981 38164 ft 464 kts 266°
2026-05-06 17:20 39.47539 -112.25163 38164 ft 465 kts 266°
2026-05-06 17:20 39.46143 -112.33277 38168 ft 462 kts 266°
2026-05-06 17:21 39.44751 -112.41357 38164 ft 464 kts 266°
2026-05-06 17:21 39.43351 -112.49469 38158 ft 465 kts 266°
2026-05-06 17:22 39.41937 -112.57602 38155 ft 463 kts 266°
2026-05-06 17:22 39.40519 -112.65733 38156 ft 465 kts 266°
2026-05-06 17:23 39.39099 -112.73836 38165 ft 465 kts 265°
2026-05-06 17:23 39.37671 -112.81950 38164 ft 464 kts 266°
2026-05-06 17:24 39.36233 -112.90073 38165 ft 465 kts 265°
2026-05-06 17:24 39.34800 -112.98163 38162 ft 465 kts 265°
2026-05-06 17:25 39.33351 -113.06287 38163 ft 464 kts 265°
2026-05-06 17:25 39.31903 -113.14376 38167 ft 465 kts 265°
2026-05-06 17:26 39.30447 -113.22494 38170 ft 466 kts 266°
2026-05-06 17:26 39.28703 -113.30553 38172 ft 469 kts 259°
2026-05-06 17:27 39.26463 -113.38522 38177 ft 473 kts 257°
2026-05-06 17:27 39.24154 -113.46435 38178 ft 472 kts 257°
2026-05-06 17:28 39.21894 -113.54285 38181 ft 470 kts 258°
2026-05-06 17:28 39.19658 -113.62189 38178 ft 472 kts 258°
2026-05-06 17:29 39.17425 -113.70106 38180 ft 470 kts 257°
2026-05-06 17:29 39.15190 -113.78059 38184 ft 472 kts 257°
2026-05-06 17:30 39.12947 -113.86018 38188 ft 472 kts 257°
2026-05-06 17:30 39.10716 -113.93896 38193 ft 469 kts 257°
2026-05-06 17:31 39.08481 -114.01767 38195 ft 469 kts 257°
2026-05-06 17:31 39.06240 -114.09642 38186 ft 471 kts 257°
2026-05-06 17:32 39.03988 -114.17539 38193 ft 470 kts 257°
2026-05-06 17:32 39.01736 -114.25406 38198 ft 472 kts 257°
2026-05-06 17:33 38.99473 -114.33276 38200 ft 469 kts 257°
2026-05-06 17:33 38.97212 -114.41116 38199 ft 469 kts 257°
2026-05-06 17:34 38.94946 -114.48961 38208 ft 470 kts 257°
2026-05-06 17:34 38.92685 -114.56763 38215 ft 470 kts 257°
2026-05-06 17:35 38.90399 -114.64631 38219 ft 470 kts 257°
2026-05-06 17:35 38.88105 -114.72502 38222 ft 470 kts 256°
2026-05-06 17:36 38.84648 -114.84313 38225 ft 470 kts 256°
2026-05-06 17:36 38.82356 -114.92120 38223 ft 471 kts 256°
2026-05-06 17:37 38.80049 -114.99953 38222 ft 470 kts 256°
2026-05-06 17:37 38.77728 -115.07814 38226 ft 472 kts 256°
2026-05-06 17:38 38.75410 -115.15632 38225 ft 470 kts 256°
2026-05-06 17:38 38.73094 -115.23425 38223 ft 471 kts 256°
2026-05-06 17:39 38.70762 -115.31248 38229 ft 471 kts 256°
2026-05-06 17:39 38.68434 -115.39042 38231 ft 471 kts 256°
2026-05-06 17:40 38.66097 -115.46843 38227 ft 471 kts 256°
2026-05-06 17:40 38.63739 -115.54691 38228 ft 472 kts 256°
2026-05-06 17:41 38.61392 -115.62474 38228 ft 471 kts 256°
2026-05-06 17:41 38.59040 -115.70250 38229 ft 472 kts 255°
2026-05-06 17:42 38.56672 -115.78062 38235 ft 473 kts 255°
2026-05-06 17:42 38.54301 -115.85860 38237 ft 472 kts 255°
2026-05-06 17:43 38.51928 -115.93646 38236 ft 472 kts 255°
2026-05-06 17:43 38.49557 -116.01423 38239 ft 473 kts 256°
2026-05-06 17:44 38.47337 -116.09289 38240 ft 471 kts 257°
2026-05-06 17:44 38.45229 -116.17172 38244 ft 470 kts 258°
2026-05-06 17:45 38.43131 -116.25008 38237 ft 470 kts 257°
2026-05-06 17:45 38.41007 -116.32839 38242 ft 470 kts 257°
2026-05-06 17:46 38.38860 -116.40690 38244 ft 471 kts 257°
2026-05-06 17:46 38.36692 -116.48570 38244 ft 471 kts 257°
2026-05-06 17:47 38.34524 -116.56406 38240 ft 471 kts 257°
2026-05-06 17:47 38.32355 -116.64204 38238 ft 470 kts 257°
2026-05-06 17:48 38.30174 -116.72041 38244 ft 472 kts 256°
2026-05-06 17:48 38.27978 -116.79909 38240 ft 471 kts 256°
2026-05-06 17:49 38.25776 -116.87770 38244 ft 471 kts 256°
2026-05-06 17:49 38.23579 -116.95589 38248 ft 471 kts 256°
2026-05-06 17:50 38.21370 -117.03435 38242 ft 472 kts 256°
2026-05-06 17:50 38.19149 -117.11295 38240 ft 472 kts 256°
2026-05-06 17:51 38.16935 -117.19109 38244 ft 472 kts 256°
2026-05-06 17:51 38.14723 -117.26891 38240 ft 471 kts 256°
2026-05-06 17:52 38.12490 -117.34721 38244 ft 471 kts 256°
2026-05-06 17:52 38.10262 -117.42513 38244 ft 472 kts 256°
2026-05-06 17:53 38.08016 -117.50350 38242 ft 472 kts 256°
2026-05-06 17:53 38.05785 -117.58108 38241 ft 471 kts 256°
2026-05-06 17:54 38.03531 -117.65919 38239 ft 472 kts 255°
2026-05-06 17:54 38.01270 -117.73670 38233 ft 472 kts 253°
2026-05-06 17:55 37.98447 -117.81269 38229 ft 478 kts 245°
2026-05-06 17:55 37.95036 -117.88501 38239 ft 481 kts 242°
2026-05-06 17:56 37.91506 -117.95624 38038 ft 477 kts 242°
2026-05-06 17:56 37.89770 -117.99132 37611 ft 472 kts 242°
2026-05-06 17:56 37.88039 -118.02647 37079 ft 469 kts 242°
2026-05-06 17:57 37.86310 -118.06181 36445 ft 467 kts 242°
2026-05-06 17:57 37.84633 -118.09622 35801 ft 466 kts 242°
2026-05-06 17:57 37.82943 -118.13097 35087 ft 467 kts 242°
2026-05-06 17:57 37.81243 -118.16599 34375 ft 468 kts 242°
2026-05-06 17:58 37.79541 -118.20105 33496 ft 475 kts 242°
2026-05-06 17:58 37.77805 -118.23689 32602 ft 482 kts 242°
2026-05-06 17:58 37.76056 -118.27293 31759 ft 487 kts 242°
2026-05-06 17:58 37.74287 -118.30928 31099 ft 485 kts 242°
2026-05-06 17:59 37.72529 -118.34534 30613 ft 479 kts 242°
2026-05-06 17:59 37.70809 -118.38052 30089 ft 474 kts 242°
2026-05-06 17:59 37.69095 -118.41556 29548 ft 470 kts 242°
2026-05-06 17:59 37.67376 -118.45068 29002 ft 466 kts 242°
2026-05-06 18:00 37.65698 -118.48493 28468 ft 461 kts 242°
2026-05-06 18:00 37.64017 -118.51923 27930 ft 457 kts 242°
2026-05-06 18:00 37.62360 -118.55301 27404 ft 453 kts 242°
2026-05-06 18:00 37.60717 -118.58647 26889 ft 449 kts 242°
2026-05-06 18:01 37.59069 -118.62001 26364 ft 445 kts 242°
2026-05-06 18:01 37.57451 -118.65292 25850 ft 441 kts 241°
2026-05-06 18:01 37.55853 -118.68539 25349 ft 437 kts 241°
2026-05-06 18:01 37.54268 -118.71758 24838 ft 433 kts 240°
2026-05-06 18:02 37.52690 -118.74959 24337 ft 429 kts 240°
2026-05-06 18:02 37.51117 -118.78146 23826 ft 425 kts 240°
2026-05-06 18:02 37.49569 -118.81279 23318 ft 422 kts 240°
2026-05-06 18:02 37.48034 -118.84383 22822 ft 418 kts 240°
2026-05-06 18:03 37.46508 -118.87468 22324 ft 415 kts 240°
2026-05-06 18:03 37.44982 -118.90549 21823 ft 413 kts 240°
2026-05-06 18:03 37.43475 -118.93590 21325 ft 410 kts 240°
2026-05-06 18:03 37.41975 -118.96611 20825 ft 407 kts 240°
2026-05-06 18:04 37.40478 -118.99625 20320 ft 405 kts 240°
2026-05-06 18:04 37.39011 -119.02578 19820 ft 402 kts 240°
2026-05-06 18:04 37.37528 -119.05557 19316 ft 399 kts 240°
2026-05-06 18:04 37.36058 -119.08507 18844 ft 395 kts 240°
2026-05-06 18:05 37.34618 -119.11395 18354 ft 392 kts 240°
2026-05-06 18:05 37.33186 -119.14265 18087 ft 383 kts 240°
2026-05-06 18:05 37.31797 -119.17045 17813 ft 375 kts 240°
2026-05-06 18:05 37.30402 -119.19837 17256 ft 376 kts 240°
2026-05-06 18:06 37.29035 -119.22575 16753 ft 375 kts 240°
2026-05-06 18:06 37.27642 -119.25360 16255 ft 375 kts 239°
2026-05-06 18:06 37.26272 -119.28098 15756 ft 375 kts 239°
2026-05-06 18:06 37.24881 -119.30873 15238 ft 374 kts 239°
2026-05-06 18:07 37.23502 -119.33620 14736 ft 372 kts 239°
2026-05-06 18:07 37.22096 -119.36338 14120 ft 373 kts 234°
2026-05-06 18:07 37.20227 -119.38581 13271 ft 376 kts 212°
2026-05-06 18:07 37.17853 -119.39810 12585 ft 369 kts 193°
2026-05-06 18:08 37.15372 -119.40538 11777 ft 368 kts 192°
2026-05-06 18:08 37.12876 -119.41258 10988 ft 367 kts 192°
2026-05-06 18:08 37.10399 -119.41979 10445 ft 358 kts 192°
2026-05-06 18:08 37.08010 -119.42674 10137 ft 343 kts 192°
2026-05-06 18:09 37.05732 -119.43336 9876 ft 328 kts 192°
2026-05-06 18:09 37.03569 -119.43963 9524 ft 318 kts 192°
2026-05-06 18:09 37.01439 -119.44573 9128 ft 312 kts 192°
2026-05-06 18:09 36.99319 -119.45174 8727 ft 305 kts 192°
2026-05-06 18:10 36.97260 -119.45564 8339 ft 299 kts 178°
2026-05-06 18:10 36.95230 -119.45183 7953 ft 292 kts 165°
2026-05-06 18:10 36.93280 -119.44513 7627 ft 287 kts 162°
2026-05-06 18:10 36.91376 -119.43806 7337 ft 283 kts 162°
2026-05-06 18:11 36.89510 -119.43105 7054 ft 280 kts 162°
2026-05-06 18:11 36.87656 -119.42403 6757 ft 278 kts 162°
2026-05-06 18:11 36.85793 -119.41814 6365 ft 277 kts 175°
2026-05-06 18:11 36.83903 -119.42231 5894 ft 279 kts 207°
2026-05-06 18:12 36.82314 -119.43595 5511 ft 277 kts 220°
2026-05-06 18:12 36.80865 -119.45155 5090 ft 274 kts 222°
2026-05-06 18:12 36.79402 -119.46641 4671 ft 272 kts 216°
2026-05-06 18:12 36.77826 -119.47945 4320 ft 266 kts 212°
2026-05-06 18:13 36.76290 -119.49146 4019 ft 260 kts 212°
2026-05-06 18:13 36.74765 -119.50333 3837 ft 250 kts 212°
2026-05-06 18:13 36.73337 -119.51447 3643 ft 241 kts 212°
2026-05-06 18:13 36.71911 -119.52559 3285 ft 241 kts 212°
2026-05-06 18:14 36.70508 -119.53651 2977 ft 237 kts 214°
2026-05-06 18:14 36.69400 -119.55102 2866 ft 226 kts 247°
2026-05-06 18:14 36.69236 -119.56936 2689 ft 211 kts 285°
2026-05-06 18:14 36.69904 -119.58497 2452 ft 202 kts 307°
2026-05-06 18:15 36.70744 -119.59866 2250 ft 193 kts 307°
2026-05-06 18:15 36.71479 -119.61208 2064 ft 185 kts 305°
2026-05-06 18:15 36.72182 -119.62515 1877 ft 177 kts 305°
2026-05-06 18:15 36.72866 -119.63760 1710 ft 165 kts 306°
2026-05-06 18:16 36.73500 -119.64874 1546 ft 156 kts 306°
2026-05-06 18:16 36.74140 -119.65974 1302 ft 154 kts 307°
2026-05-06 18:16 36.74778 -119.67038 1086 ft 153 kts 305°
2026-05-06 18:16 36.75389 -119.68134 874 ft 155 kts 304°
2026-05-06 18:17 36.76009 -119.69235 694 ft 153 kts 306°
2026-05-06 18:17 36.76637 -119.70312 486 ft 154 kts 304°
2026-05-06 18:17 36.77257 -119.71406 336 ft 151 kts 305°
2026-05-06 18:17 36.77717 -119.72212 337 ft 78 kts 306°
2026-05-06 18:18 36.77963 -119.72642 337 ft 47 kts 306°
2026-05-06 18:18 36.78027 -119.72821 337 ft 12 kts 218°
2026-05-06 18:18 36.77970 -119.72871 337 ft 8 kts 201°
2026-05-06 18:18 36.77914 -119.72807 337 ft 17 kts 123°
2026-05-06 18:19 36.77824 -119.72650 337 ft 24 kts 124°
2026-05-06 18:19 36.77723 -119.72472 337 ft 25 kts 125°
2026-05-06 18:19 36.77622 -119.72295 336 ft 24 kts 125°
2026-05-06 18:19 36.77523 -119.72122 336 ft 24 kts 125°
2026-05-06 18:20 36.77428 -119.71952 335 ft 23 kts 124°
2026-05-06 18:20 36.77332 -119.71830 335 ft 17 kts 178°
2026-05-06 18:20 36.77246 -119.71817 334 ft 6 kts 195°
2026-05-06 18:20 36.77223 -119.71825 334 ft 0 kts 195°
2026-05-06 18:21 36.77221 -119.71825 334 ft 0 kts 195°